| time (UTC) | temp C | wind direction | speed KPH | gust KPH | rain 1hr cm | rain 24hr cm | rain mn cm | humidity % | barometer mb |
| 20260505170122 | 27 | 184 | 4.8 | 14.5 | 0.00 | 0.00 | 0.00 | 37 | 1008.6 |
| 20260505165622 | 27 | 264 | 1.6 | 14.5 | 0.00 | 0.00 | 0.00 | 38 | 1008.8 |
| 20260505165122 | 26 | 177 | 1.6 | 14.5 | 0.00 | 0.00 | 0.00 | 40 | 1008.8 |
| 20260505164622 | 27 | 245 | 1.6 | 11.3 | 0.00 | 0.00 | 0.00 | 40 | 1009.0 |
| 20260505164121 | 27 | 246 | 4.8 | 11.3 | 0.00 | 0.00 | 0.00 | 42 | 1008.7 |
| 20260505163621 | 26 | 88 | 1.6 | 12.9 | 0.00 | 0.00 | 0.00 | 42 | 1009.0 |
| 20260505163121 | 26 | 289 | 3.2 | 12.9 | 0.00 | 0.00 | 0.00 | 41 | 1008.8 |
| 20260505162622 | 26 | 297 | 3.2 | 9.7 | 0.00 | 0.00 | 0.00 | 43 | 1009.0 |
| 20260505162122 | 26 | 240 | 1.6 | 9.7 | 0.00 | 0.00 | 0.00 | 42 | 1009.1 |
| 20260505161621 | 26 | 285 | 3.2 | 11.3 | 0.00 | 0.00 | 0.00 | 45 | 1009.3 |
| 20260505161345 | 26 | 263 | 4.8 | 11.3 | 0.00 | 0.00 | 0.00 | 44 | 1009.2 |
| 20260505160621 | 26 | 204 | 1.6 | 6.4 | 0.00 | 0.00 | 0.00 | 43 | 1009.2 |
| 20260505160121 | 26 | 324 | 0.0 | 4.8 | 0.00 | 0.00 | 0.00 | 45 | 1009.4 |
| 20260505153121 | 25 | 243 | 1.6 | 9.7 | 0.00 | 0.00 | 0.00 | 44 | 1009.3 |
| 20260505152620 | 25 | 220 | 1.6 | 9.7 | 0.00 | 0.00 | 0.00 | 47 | 1009.3 |
| 20260505152121 | 25 | 266 | 3.2 | 9.7 | 0.00 | 0.00 | 0.00 | 45 | 1009.4 |
| 20260505151621 | 24 | 271 | 1.6 | 12.9 | 0.00 | 0.00 | 0.00 | 47 | 1009.2 |
| 20260505151120 | 24 | 240 | 1.6 | 12.9 | 0.00 | 0.00 | 0.00 | 45 | 1009.4 |
| 20260505150621 | 24 | 117 | 3.2 | 9.7 | 0.00 | 0.00 | 0.00 | 48 | 1009.5 |
| 20260505150550 | 24 | 257 | 1.6 | 11.3 | 0.00 | 0.00 | 0.00 | 46 | 1009.6 |
| 20260505150213 | 25 | 218 | 0.0 | 11.3 | 0.00 | 0.00 | 0.00 | 45 | 1009.4 |
| 20260505140620 | 22 | 278 | 4.8 | 11.3 | 0.00 | 0.00 | 0.00 | 54 | 1010.1 |
| 20260505140340 | 22 | 9 | 0.0 | 11.3 | 0.00 | 0.00 | 0.00 | 53 | 1010.0 |
| 20260505130121 | 20 | 197 | 1.6 | 6.4 | 0.00 | 0.00 | 0.00 | 59 | 1010.6 |
| 20260505124621 | 19 | 133 | 0.0 | 3.2 | 0.00 | 0.00 | 0.00 | 62 | 1010.8 |
| 20260505124121 | 19 | 146 | 1.6 | 3.2 | 0.00 | 0.00 | 0.00 | 64 | 1010.5 |
| 20260505123621 | 18 | 37 | 0.0 | 3.2 | 0.00 | 0.00 | 0.00 | 68 | 1010.6 |
| 20260505123339 | 18 | 331 | 0.0 | 3.2 | 0.00 | 0.00 | 0.00 | 66 | 1010.4 |
| 20260505122621 | 17 | 111 | 0.0 | 3.2 | 0.00 | 0.00 | 0.00 | 68 | 1010.6 |
| 20260505122121 | 17 | 306 | 0.0 | 1.6 | 0.00 | 0.00 | 0.00 | 70 | 1010.4 |
| 20260505121621 | 16 | 306 | 0.0 | 1.6 | 0.00 | 0.00 | 0.00 | 71 | 1010.4 |
| 20260505121121 | 16 | 306 | 0.0 | 0.0 | 0.00 | 0.00 | 0.00 | 72 | 1010.6 |
| 20260505120844 | 15 | 306 | 0.0 | 0.0 | 0.00 | 0.00 | 0.00 | 75 | 1010.3 |
| 20260505120121 | 15 | 306 | 0.0 | 0.0 | 0.00 | 0.00 | 0.00 | 78 | 1010.3 |
| 20260505115621 | 14 | 306 | 0.0 | 0.0 | 0.00 | 0.00 | 0.00 | 80 | 1010.3 |
| 20260505115342 | 14 | 306 | 0.0 | 0.0 | 0.00 | 0.00 | 0.00 | 80 | 1010.4 |
| 20260505114621 | 13 | 306 | 0.0 | 0.0 | 0.00 | 0.00 | 0.00 | 80 | 1010.2 |
| 20260505114121 | 13 | 306 | 0.0 | 0.0 | 0.00 | 0.00 | 0.00 | 81 | 1010.2 |
| 20260505113621 | 12 | 306 | 0.0 | 0.0 | 0.00 | 0.00 | 0.00 | 85 | 1010.2 |
| 20260505113342 | 12 | 306 | 0.0 | 0.0 | 0.00 | 0.00 | 0.00 | 87 | 1010.2 |
| 20260505112621 | 11 | 306 | 0.0 | 0.0 | 0.00 | 0.00 | 0.00 | 89 | 1010.0 |
| 20260505112121 | 10 | 306 | 0.0 | 0.0 | 0.00 | 0.00 | 0.00 | 90 | 1010.0 |
| 20260505111620 | 10 | 306 | 0.0 | 0.0 | 0.00 | 0.00 | 0.00 | 91 | 1010.0 |
| 20260505111121 | 10 | 305 | 0.0 | 0.0 | 0.00 | 0.00 | 0.00 | 92 | 1010.1 |
| 20260505110620 | 9 | 306 | 0.0 | 0.0 | 0.00 | 0.00 | 0.00 | 93 | 1010.0 |
| 20260505110121 | 8 | 306 | 0.0 | 0.0 | 0.00 | 0.00 | 0.00 | 93 | 1010.0 |
| 20260505102120 | 8 | 306 | 0.0 | 0.0 | 0.00 | 0.00 | 0.00 | 94 | 1009.7 |
| 20260505102110 | 8 | 306 | 0.0 | 0.0 | 0.00 | 0.00 | 0.00 | 94 | 1009.6 |
| 20260505101347 | 8 | 306 | 0.0 | 0.0 | 0.00 | 0.00 | 0.00 | 94 | 1009.6 |
| 20260505100621 | 8 | 306 | 0.0 | 0.0 | 0.00 | 0.00 | 0.00 | 94 | 1009.6 |
| 20260505100120 | 8 | 306 | 0.0 | 0.0 | 0.00 | 0.00 | 0.00 | 94 | 1009.3 |
| 20260505095620 | 8 | 306 | 0.0 | 0.0 | 0.00 | 0.00 | 0.00 | 94 | 1009.4 |
| 20260505095121 | 8 | 306 | 0.0 | 0.0 | 0.00 | 0.00 | 0.00 | 94 | 1009.3 |
| 20260505094621 | 8 | 306 | 0.0 | 0.0 | 0.00 | 0.00 | 0.00 | 94 | 1009.6 |
| 20260505094121 | 8 | 306 | 0.0 | 0.0 | 0.00 | 0.00 | 0.00 | 93 | 1009.4 |
| 20260505093621 | 8 | 306 | 0.0 | 0.0 | 0.00 | 0.00 | 0.00 | 93 | 1009.7 |
| 20260505093121 | 8 | 306 | 0.0 | 0.0 | 0.00 | 0.00 | 0.00 | 93 | 1009.1 |
| 20260505092621 | 8 | 306 | 0.0 | 0.0 | 0.00 | 0.00 | 0.00 | 93 | 1009.1 |
| 20260505092120 | 8 | 306 | 0.0 | 0.0 | 0.00 | 0.00 | 0.00 | 92 | 1009.4 |
| 20260505091840 | 9 | 306 | 0.0 | 0.0 | 0.00 | 0.00 | 0.00 | 92 | 1009.4 |
| 20260505091120 | 9 | 306 | 0.0 | 0.0 | 0.00 | 0.00 | 0.00 | 92 | 1009.4 |
| 20260505090844 | 9 | 306 | 0.0 | 0.0 | 0.00 | 0.00 | 0.00 | 92 | 1009.3 |
| 20260505090121 | 9 | 306 | 0.0 | 0.0 | 0.00 | 0.00 | 0.00 | 92 | 1009.3 |
| 20260505085620 | 9 | 306 | 0.0 | 0.0 | 0.00 | 0.00 | 0.00 | 92 | 1009.1 |
| 20260505085341 | 10 | 306 | 0.0 | 0.0 | 0.00 | 0.00 | 0.00 | 92 | 1009.0 |
| 20260505084842 | 10 | 306 | 0.0 | 0.0 | 0.00 | 0.00 | 0.00 | 92 | 1009.1 |
| 20260505084121 | 10 | 306 | 0.0 | 0.0 | 0.00 | 0.00 | 0.00 | 92 | 1009.2 |
| 20260505083620 | 10 | 306 | 0.0 | 0.0 | 0.00 | 0.00 | 0.00 | 91 | 1009.2 |
| 20260505083120 | 10 | 306 | 0.0 | 0.0 | 0.00 | 0.00 | 0.00 | 91 | 1009.2 |
| 20260505082844 | 10 | 306 | 0.0 | 0.0 | 0.00 | 0.00 | 0.00 | 90 | 1009.0 |
| 20260505082121 | 10 | 306 | 0.0 | 0.0 | 0.00 | 0.00 | 0.00 | 90 | 1009.1 |
| 20260505082109 | 10 | 306 | 0.0 | 0.0 | 0.00 | 0.00 | 0.00 | 89 | 1009.0 |
| 20260505081121 | 11 | 306 | 0.0 | 0.0 | 0.00 | 0.00 | 0.00 | 89 | 1009.1 |
| 20260505080621 | 11 | 306 | 0.0 | 0.0 | 0.00 | 0.00 | 0.00 | 88 | 1009.1 |
| 20260505080121 | 11 | 306 | 0.0 | 0.0 | 0.00 | 0.00 | 0.00 | 88 | 1008.9 |
| 20260505075837 | 11 | 306 | 0.0 | 0.0 | 0.00 | 0.00 | 0.00 | 88 | 1009.0 |
| 20260505075121 | 11 | 306 | 0.0 | 0.0 | 0.00 | 0.00 | 0.00 | 86 | 1009.1 |
| 20260505074621 | 11 | 306 | 0.0 | 0.0 | 0.00 | 0.00 | 0.00 | 87 | 1009.0 |
| 20260505074347 | 11 | 306 | 0.0 | 0.0 | 0.00 | 0.00 | 0.00 | 85 | 1009.1 |
| 20260505073620 | 12 | 306 | 0.0 | 0.0 | 0.00 | 0.00 | 0.00 | 86 | 1008.9 |
| 20260505073120 | 12 | 306 | 0.0 | 0.0 | 0.00 | 0.00 | 0.00 | 86 | 1008.9 |
| 20260505072620 | 12 | 306 | 0.0 | 0.0 | 0.00 | 0.00 | 0.00 | 86 | 1008.8 |
| 20260505072120 | 12 | 306 | 0.0 | 0.0 | 0.00 | 0.00 | 0.00 | 86 | 1008.7 |
| 20260505071620 | 12 | 306 | 0.0 | 0.0 | 0.00 | 0.00 | 0.00 | 85 | 1008.7 |
| 20260505071120 | 12 | 306 | 0.0 | 0.0 | 0.00 | 0.00 | 0.00 | 85 | 1008.9 |
| 20260505070620 | 12 | 306 | 0.0 | 0.0 | 0.00 | 0.00 | 0.00 | 85 | 1008.9 |
| 20260505070120 | 12 | 306 | 0.0 | 0.0 | 0.00 | 0.00 | 0.00 | 84 | 1008.8 |
| 20260505065620 | 12 | 306 | 0.0 | 0.0 | 0.00 | 0.00 | 0.00 | 83 | 1008.8 |
| 20260505065120 | 13 | 306 | 0.0 | 0.0 | 0.00 | 0.00 | 0.00 | 82 | 1009.0 |
| 20260505064620 | 13 | 306 | 0.0 | 0.0 | 0.00 | 0.00 | 0.00 | 82 | 1008.9 |
| 20260505064119 | 13 | 306 | 0.0 | 0.0 | 0.00 | 0.00 | 0.00 | 82 | 1008.9 |
| 20260505064114 | 13 | 306 | 0.0 | 0.0 | 0.00 | 0.00 | 0.00 | 81 | 1008.9 |
| 20260505063120 | 13 | 306 | 0.0 | 0.0 | 0.00 | 0.00 | 0.00 | 81 | 1009.2 |
| 20260505062611 | 13 | 306 | 0.0 | 0.0 | 0.00 | 0.00 | 0.00 | 80 | 1009.1 |
| 20260505062606 | 13 | 306 | 0.0 | 0.0 | 0.00 | 0.00 | 0.00 | 81 | 1009.1 |
| 20260505061555 | 13 | 306 | 0.0 | 0.0 | 0.00 | 0.00 | 0.00 | 82 | 1009.0 |
| 20260505061055 | 13 | 306 | 0.0 | 0.0 | 0.00 | 0.00 | 0.00 | 80 | 1009.1 |
| 20260505060555 | 13 | 306 | 0.0 | 0.0 | 0.00 | 0.00 | 0.00 | 80 | 1009.1 |
| 20260505060044 | 13 | 306 | 0.0 | 0.0 | 0.00 | 0.00 | 0.00 | 79 | 1009.1 |
| 20260505060032 | 13 | 306 | 0.0 | 0.0 | 0.00 | 0.00 | 0.00 | 79 | 1009.2 |
| 20260505055044 | 13 | 306 | 0.0 | 0.0 | 0.00 | 0.00 | 0.00 | 79 | 1009.0 |
| 20260505054531 | 13 | 306 | 0.0 | 0.0 | 0.00 | 0.00 | 0.00 | 80 | 1008.8 |
| 20260505054031 | 13 | 306 | 0.0 | 0.0 | 0.00 | 0.00 | 0.00 | 78 | 1009.0 |
| 20260505053531 | 13 | 306 | 0.0 | 0.0 | 0.00 | 0.00 | 0.00 | 77 | 1009.1 |
| 20260505053031 | 13 | 7 | 0.0 | 0.0 | 0.00 | 0.00 | 0.00 | 74 | 1009.0 |
| 20260505052531 | 13 | 7 | 0.0 | 0.0 | 0.00 | 0.00 | 0.00 | 78 | 1009.1 |
| 20260505052032 | 13 | 7 | 0.0 | 0.0 | 0.00 | 0.00 | 0.00 | 78 | 1009.3 |
| 20260505051532 | 13 | 7 | 0.0 | 0.0 | 0.00 | 0.00 | 0.00 | 77 | 1009.0 |
| 20260505051032 | 13 | 7 | 0.0 | 0.0 | 0.00 | 0.00 | 0.00 | 77 | 1009.2 |
| 20260505050759 | 13 | 7 | 0.0 | 0.0 | 0.00 | 0.00 | 0.00 | 77 | 1009.1 |
| 20260505041455 | 13 | 7 | 0.0 | 0.0 | 0.00 | 0.00 | 0.00 | 78 | 1008.7 |
| 20260505040956 | 13 | 7 | 0.0 | 0.0 | 0.00 | 0.00 | 0.00 | 76 | 1008.9 |
| 20260505040444 | 13 | 7 | 0.0 | 0.0 | 0.00 | 0.00 | 0.00 | 76 | 1008.8 |
| 20260505035944 | 13 | 7 | 0.0 | 0.0 | 0.00 | 0.00 | 0.00 | 74 | 1009.0 |
| 20260505035444 | 13 | 7 | 0.0 | 0.0 | 0.00 | 0.00 | 0.00 | 71 | 1009.0 |
| 20260505034931 | 14 | 6 | 0.0 | 0.0 | 0.00 | 0.00 | 0.00 | 68 | 1008.8 |
| 20260505034648 | 14 | 6 | 0.0 | 0.0 | 0.00 | 0.00 | 0.00 | 68 | 1008.7 |
| 20260505034151 | 14 | 6 | 0.0 | 0.0 | 0.00 | 0.00 | 0.00 | 68 | 1008.6 |
| 20260505033420 | 15 | 6 | 0.0 | 0.0 | 0.00 | 0.00 | 0.00 | 70 | 1009.0 |
| 20260505032920 | 15 | 7 | 0.0 | 0.0 | 0.00 | 0.00 | 0.00 | 69 | 1008.8 |
| 20260505032640 | 16 | 7 | 0.0 | 0.0 | 0.00 | 0.00 | 0.00 | 65 | 1008.8 |
| 20260505031919 | 16 | 6 | 0.0 | 1.6 | 0.00 | 0.00 | 0.00 | 62 | 1009.1 |
| 20260505031419 | 17 | 9 | 0.0 | 1.6 | 0.00 | 0.00 | 0.00 | 58 | 1008.7 |
| 20260505031146 | 17 | 59 | 0.0 | 0.0 | 0.00 | 0.00 | 0.00 | 56 | 1008.6 |
| 20260505030647 | 17 | 4 | 0.0 | 0.0 | 0.00 | 0.00 | 0.00 | 57 | 1008.8 |
| 20260505025920 | 18 | 14 | 0.0 | 3.2 | 0.00 | 0.00 | 0.00 | 53 | 1008.8 |
| 20260505025420 | 18 | 313 | 0.0 | 3.2 | 0.00 | 0.00 | 0.00 | 52 | 1008.6 |
| 20260505025148 | 18 | 316 | 0.0 | 3.2 | 0.00 | 0.00 | 0.00 | 53 | 1008.6 |
| 20260505024419 | 18 | 146 | 0.0 | 3.2 | 0.00 | 0.00 | 0.00 | 52 | 1008.5 |
| 20260505023919 | 18 | 9 | 0.0 | 3.2 | 0.00 | 0.00 | 0.00 | 51 | 1008.5 |
| 20260505023419 | 18 | 11 | 0.0 | 4.8 | 0.00 | 0.00 | 0.00 | 50 | 1008.6 |
| 20260505022919 | 18 | 170 | 0.0 | 4.8 | 0.00 | 0.00 | 0.00 | 50 | 1008.4 |
| 20260505022420 | 18 | 169 | 0.0 | 4.8 | 0.00 | 0.00 | 0.00 | 50 | 1008.6 |
| 20260505021920 | 18 | 137 | 3.2 | 9.7 | 0.00 | 0.00 | 0.00 | 49 | 1008.4 |
| 20260505021420 | 19 | 146 | 0.0 | 9.7 | 0.00 | 0.00 | 0.00 | 49 | 1008.3 |
| 20260505020920 | 18 | 186 | 1.6 | 3.2 | 0.00 | 0.00 | 0.00 | 50 | 1008.5 |
| 20260505020420 | 18 | 140 | 3.2 | 3.2 | 0.00 | 0.00 | 0.00 | 49 | 1008.3 |
| 20260505015908 | 18 | 179 | 0.0 | 3.2 | 0.00 | 0.00 | 0.00 | 50 | 1008.4 |
| 20260505015408 | 18 | 324 | 0.0 | 4.8 | 0.00 | 0.00 | 0.00 | 50 | 1008.7 |
| 20260505014908 | 18 | 221 | 4.8 | 4.8 | 0.00 | 0.00 | 0.00 | 50 | 1008.6 |
| 20260505014355 | 18 | 121 | 4.8 | 4.8 | 0.00 | 0.00 | 0.00 | 49 | 1008.3 |
| 20260505013855 | 18 | 112 | 1.6 | 3.2 | 0.00 | 0.00 | 0.00 | 49 | 1008.4 |
| 20260505013355 | 18 | 118 | 0.0 | 4.8 | 0.00 | 0.00 | 0.00 | 49 | 1008.3 |
| 20260505012843 | 19 | 154 | 0.0 | 4.8 | 0.00 | 0.00 | 0.00 | 49 | 1008.7 |
| 20260505012828 | 19 | 143 | 4.8 | 4.8 | 0.00 | 0.00 | 0.00 | 48 | 1008.6 |
| 20260505011842 | 19 | 107 | 0.0 | 4.8 | 0.00 | 0.00 | 0.00 | 49 | 1008.6 |
| 20260505011331 | 19 | 151 | 0.0 | 3.2 | 0.00 | 0.00 | 0.00 | 49 | 1008.5 |
| 20260505010831 | 19 | 189 | 0.0 | 9.7 | 0.00 | 0.00 | 0.00 | 48 | 1008.2 |
| 20260505010329 | 19 | 178 | 1.6 | 9.7 | 0.00 | 0.00 | 0.00 | 49 | 1008.4 |
| 20260505010050 | 20 | 141 | 0.0 | 6.4 | 0.00 | 0.00 | 0.00 | 47 | 1008.2 |
| 20260505005330 | 20 | 215 | 0.0 | 6.4 | 0.00 | 0.00 | 0.00 | 47 | 1008.3 |
| 20260505004829 | 20 | 146 | 3.2 | 4.8 | 0.00 | 0.00 | 0.00 | 45 | 1008.3 |
| 20260505004552 | 20 | 185 | 4.8 | 4.8 | 0.00 | 0.00 | 0.00 | 46 | 1008.0 |
| 20260505003830 | 20 | 154 | 0.0 | 3.2 | 0.00 | 0.00 | 0.00 | 45 | 1008.0 |
| 20260505003329 | 20 | 104 | 0.0 | 1.6 | 0.00 | 0.00 | 0.00 | 45 | 1007.9 |
| 20260505002829 | 20 | 160 | 0.0 | 1.6 | 0.00 | 0.00 | 0.00 | 46 | 1007.9 |
| 20260505002330 | 20 | 177 | 0.0 | 1.6 | 0.00 | 0.00 | 0.00 | 46 | 1007.9 |
| 20260505001829 | 20 | 114 | 0.0 | 1.6 | 0.00 | 0.00 | 0.00 | 45 | 1008.0 |
| 20260505001329 | 20 | 98 | 0.0 | 4.8 | 0.00 | 0.00 | 0.00 | 45 | 1007.8 |
| 20260505000829 | 21 | 129 | 0.0 | 4.8 | 0.00 | 0.00 | 0.00 | 45 | 1007.7 |
| 20260505000329 | 21 | 134 | 3.2 | 4.8 | 0.00 | 0.00 | 0.00 | 44 | 1007.6 |
| 20260504235830 | 21 | 154 | 0.0 | 4.8 | 0.00 | 0.00 | 0.00 | 44 | 1007.8 |
| 20260504235329 | 21 | 163 | 1.6 | 4.8 | 0.00 | 0.00 | 0.00 | 43 | 1007.5 |
| 20260504234830 | 21 | 164 | 0.0 | 9.7 | 0.00 | 0.00 | 0.00 | 43 | 1007.5 |
| 20260504234330 | 21 | 163 | 0.0 | 9.7 | 0.00 | 0.00 | 0.00 | 43 | 1007.6 |
| 20260504233830 | 21 | 190 | 3.2 | 9.7 | 0.00 | 0.00 | 0.00 | 42 | 1007.7 |
| 20260504233329 | 21 | 110 | 3.2 | 9.7 | 0.00 | 0.00 | 0.00 | 42 | 1007.7 |
| 20260504232829 | 21 | 158 | 3.2 | 6.4 | 0.00 | 0.00 | 0.00 | 42 | 1007.4 |
| 20260504232329 | 21 | 154 | 0.0 | 6.4 | 0.00 | 0.00 | 0.00 | 42 | 1007.4 |
| 20260504231829 | 22 | 166 | 0.0 | 6.4 | 0.00 | 0.00 | 0.00 | 43 | 1007.7 |
| 20260504231329 | 22 | 198 | 0.0 | 9.7 | 0.00 | 0.00 | 0.00 | 42 | 1007.6 |
| 20260504230829 | 22 | 225 | 0.0 | 9.7 | 0.00 | 0.00 | 0.00 | 42 | 1007.6 |
| 20260504230329 | 22 | 138 | 3.2 | 9.7 | 0.00 | 0.00 | 0.00 | 41 | 1007.8 |
| 20260504225829 | 22 | 133 | 1.6 | 9.7 | 0.00 | 0.00 | 0.00 | 41 | 1007.7 |
| 20260504225551 | 22 | 216 | 1.6 | 9.7 | 0.00 | 0.00 | 0.00 | 40 | 1007.5 |
| 20260504224829 | 22 | 138 | 3.2 | 9.7 | 0.00 | 0.00 | 0.00 | 40 | 1007.5 |
| 20260504224330 | 22 | 161 | 3.2 | 11.3 | 0.00 | 0.00 | 0.00 | 41 | 1007.7 |
| 20260504223818 | 22 | 150 | 1.6 | 11.3 | 0.00 | 0.00 | 0.00 | 40 | 1007.8 |
| 20260504223318 | 22 | 305 | 4.8 | 11.3 | 0.00 | 0.00 | 0.00 | 39 | 1007.7 |
| 20260504222818 | 22 | 147 | 6.4 | 11.3 | 0.00 | 0.00 | 0.00 | 40 | 1007.8 |
| 20260504222318 | 22 | 110 | 3.2 | 11.3 | 0.00 | 0.00 | 0.00 | 40 | 1007.7 |
| 20260504221818 | 22 | 151 | 1.6 | 11.3 | 0.00 | 0.00 | 0.00 | 40 | 1007.9 |
| 20260504221535 | 23 | 305 | 1.6 | 12.9 | 0.00 | 0.00 | 0.00 | 40 | 1007.8 |
| 20260504220817 | 22 | 173 | 1.6 | 12.9 | 0.00 | 0.00 | 0.00 | 40 | 1007.8 |
| 20260504220317 | 22 | 140 | 4.8 | 14.5 | 0.00 | 0.00 | 0.00 | 39 | 1007.8 |
| 20260504220036 | 22 | 182 | 4.8 | 14.5 | 0.00 | 0.00 | 0.00 | 39 | 1007.8 |
| 20260504215318 | 22 | 101 | 3.2 | 11.3 | 0.00 | 0.00 | 0.00 | 40 | 1007.8 |
| 20260504215043 | 22 | 88 | 8.0 | 11.3 | 0.00 | 0.00 | 0.00 | 39 | 1007.9 |
| 20260504214318 | 22 | 317 | 0.0 | 12.9 | 0.00 | 0.00 | 0.00 | 40 | 1007.9 |
| 20260504213818 | 22 | 235 | 3.2 | 12.9 | 0.00 | 0.00 | 0.00 | 39 | 1007.9 |
| 20260504213318 | 22 | 77 | 0.0 | 9.7 | 0.00 | 0.00 | 0.00 | 39 | 1007.6 |
| 20260504212818 | 22 | 164 | 1.6 | 9.7 | 0.00 | 0.00 | 0.00 | 39 | 1007.8 |
| 20260504212305 | 22 | 331 | 0.0 | 11.3 | 0.00 | 0.00 | 0.00 | 41 | 1007.8 |
| 20260504211806 | 22 | 175 | 3.2 | 11.3 | 0.00 | 0.00 | 0.00 | 40 | 1007.6 |
| 20260504211305 | 22 | 198 | 4.8 | 12.9 | 0.00 | 0.00 | 0.00 | 40 | 1007.8 |
| 20260504210753 | 22 | 196 | 9.7 | 12.9 | 0.00 | 0.00 | 0.00 | 39 | 1007.7 |
| 20260504210254 | 22 | 102 | 1.6 | 11.3 | 0.00 | 0.00 | 0.00 | 40 | 1007.7 |
| 20260504210013 | 22 | 220 | 0.0 | 12.9 | 0.00 | 0.00 | 0.00 | 41 | 1007.7 |
| 20260504205242 | 22 | 171 | 0.0 | 12.9 | 0.00 | 0.00 | 0.00 | 39 | 1007.8 |
| 20260504205008 | 22 | 138 | 3.2 | 9.7 | 0.00 | 0.00 | 0.00 | 39 | 1007.8 |
| 20260504204242 | 22 | 89 | 0.0 | 14.5 | 0.00 | 0.00 | 0.00 | 41 | 1008.0 |
| 20260504203730 | 22 | 3 | 0.0 | 16.1 | 0.00 | 0.00 | 0.00 | 38 | 1007.9 |
| 20260504203230 | 22 | 147 | 9.7 | 16.1 | 0.00 | 0.00 | 0.00 | 39 | 1008.1 |
| 20260504202958 | 22 | 325 | 6.4 | 16.1 | 0.00 | 0.00 | 0.00 | 38 | 1008.1 |
| 20260504202230 | 22 | 107 | 3.2 | 16.1 | 0.00 | 0.00 | 0.00 | 39 | 1007.7 |
| 20260504201730 | 22 | 153 | 1.6 | 20.9 | 0.00 | 0.00 | 0.00 | 40 | 1008.1 |
| 20260504201457 | 22 | 122 | 1.6 | 20.9 | 0.00 | 0.00 | 0.00 | 39 | 1008.2 |
| 20260504200730 | 22 | 141 | 4.8 | 14.5 | 0.00 | 0.00 | 0.00 | 38 | 1008.4 |
| 20260504200231 | 22 | 135 | 4.8 | 14.5 | 0.00 | 0.00 | 0.00 | 39 | 1008.5 |
| 20260504195730 | 22 | 203 | 8.0 | 14.5 | 0.00 | 0.00 | 0.00 | 39 | 1008.6 |
| 20260504195454 | 22 | 150 | 1.6 | 11.3 | 0.00 | 0.00 | 0.00 | 39 | 1008.7 |
| 20260504194730 | 22 | 88 | 0.0 | 11.3 | 0.00 | 0.00 | 0.00 | 39 | 1008.5 |
| 20260504194230 | 22 | 300 | 3.2 | 14.5 | 0.00 | 0.00 | 0.00 | 38 | 1008.6 |
| 20260504193729 | 22 | 142 | 3.2 | 17.7 | 0.00 | 0.00 | 0.00 | 39 | 1008.9 |
| 20260504193230 | 22 | 131 | 4.8 | 17.7 | 0.00 | 0.00 | 0.00 | 40 | 1008.7 |
| 20260504192730 | 22 | 248 | 1.6 | 11.3 | 0.00 | 0.00 | 0.00 | 39 | 1008.9 |
| 20260504192229 | 22 | 145 | 3.2 | 11.3 | 0.00 | 0.00 | 0.00 | 39 | 1009.0 |
| 20260504191730 | 22 | 320 | 0.0 | 12.9 | 0.00 | 0.00 | 0.00 | 40 | 1009.2 |
| 20260504191450 | 22 | 113 | 1.6 | 12.9 | 0.00 | 0.00 | 0.00 | 39 | 1009.0 |
| 20260504190730 | 23 | 284 | 0.0 | 9.7 | 0.00 | 0.00 | 0.00 | 38 | 1009.1 |
| 20260504190230 | 23 | 25 | 0.0 | 9.7 | 0.00 | 0.00 | 0.00 | 41 | 1009.1 |
| 20260504185730 | 23 | 233 | 0.0 | 9.7 | 0.00 | 0.00 | 0.00 | 39 | 1009.4 |
| 20260504185456 | 22 | 315 | 1.6 | 12.9 | 0.00 | 0.00 | 0.00 | 38 | 1009.4 |
| 20260504184730 | 22 | 231 | 1.6 | 12.9 | 0.00 | 0.00 | 0.00 | 37 | 1009.6 |
| 20260504184230 | 22 | 272 | 1.6 | 14.5 | 0.00 | 0.00 | 0.00 | 39 | 1009.7 |
| 20260504183730 | 22 | 250 | 3.2 | 14.5 | 0.00 | 0.00 | 0.00 | 39 | 1009.6 |
| 20260504183230 | 22 | 195 | 1.6 | 11.3 | 0.00 | 0.00 | 0.00 | 39 | 1009.7 |
| 20260504182949 | 22 | 271 | 6.4 | 11.3 | 0.00 | 0.00 | 0.00 | 39 | 1009.9 |
| 20260504182217 | 21 | 85 | 1.6 | 14.5 | 0.00 | 0.00 | 0.00 | 38 | 1009.7 |
| 20260504181718 | 22 | 165 | 1.6 | 14.5 | 0.00 | 0.00 | 0.00 | 39 | 1010.0 |
| 20260504181218 | 22 | 272 | 1.6 | 4.8 | 0.00 | 0.00 | 0.00 | 37 | 1010.0 |
| 20260504180936 | 22 | 218 | 3.2 | 12.9 | 0.00 | 0.00 | 0.00 | 41 | 1010.1 |
| 20260504180217 | 21 | 125 | 1.6 | 12.9 | 0.00 | 0.00 | 0.00 | 41 | 1010.0 |
| 20260504175717 | 22 | 251 | 0.0 | 9.7 | 0.00 | 0.00 | 0.00 | 38 | 1010.3 |
| 20260504175218 | 22 | 288 | 4.8 | 6.4 | 0.00 | 0.00 | 0.00 | 38 | 1010.2 |
| 20260504174706 | 22 | 103 | 1.6 | 6.4 | 0.00 | 0.00 | 0.00 | 41 | 1010.2 |
| 20260504174206 | 21 | 287 | 3.2 | 16.1 | 0.00 | 0.00 | 0.00 | 40 | 1010.3 |
| 20260504173706 | 21 | 169 | 1.6 | 16.1 | 0.00 | 0.00 | 0.00 | 40 | 1010.3 |
| 20260504173154 | 21 | 74 | 4.8 | 12.9 | 0.00 | 0.00 | 0.00 | 39 | 1010.2 |
| 20260504172654 | 21 | 248 | 3.2 | 12.9 | 0.00 | 0.00 | 0.00 | 38 | 1010.4 |
| 20260504172154 | 20 | 18 | 1.6 | 12.9 | 0.00 | 0.00 | 0.00 | 42 | 1010.3 |
| 20260504171900 | 21 | 145 | 6.4 | 12.9 | 0.00 | 0.00 | 0.00 | 38 | 1010.7 |
| 20260504171142 | 21 | 293 | 4.8 | 11.3 | 0.00 | 0.00 | 0.00 | 39 | 1010.4 |
| 20260504170642 | 20 | 156 | 1.6 | 11.3 | 0.00 | 0.00 | 0.00 | 40 | 1010.9 |